• Em Portugal
  • Lista de países
  • Para 7 dias
  • Temperatura da água
  • Mapas de satélite
  • Mapa do tempo
  • Widgets de tempo
  • user-avatar
    Iniciar Sessão

    Previsão horária em Lubango

    Hoje, 11 Dezembro, Segunda-feira

    Tempo Temperatura Precipitação Vento Pressão Humidade
    00:00 +15°C° 0 mm 1 m/s 608 mmHg 89%
    01:00 +15°C° 0 mm 1 m/s 608 mmHg 90%
    02:00 +15°C° 0 mm 1 m/s 608 mmHg 91%
    03:00 +15°C° 0 mm 1 m/s 608 mmHg 91%
    04:00 +15°C° 0 mm 1 m/s 608 mmHg 91%
    05:00 +15°C° 0 mm 1 m/s 608 mmHg 88%
    06:00 +16°C° 0 mm 1 m/s 609 mmHg 84%
    07:00 +18°C° 0 mm 1 m/s 609 mmHg 80%
    08:00 +20°C° 0,2 mm 1 m/s 610 mmHg 70%
    09:00 +22°C° 0,2 mm 1 m/s 611 mmHg 61%
    10:00 +25°C° 0,2 mm 2 m/s 612 mmHg 51%
    11:00 +25°C° 0,7 mm 2 m/s 611 mmHg 50%
    12:00 +25°C° 0,7 mm 2 m/s 611 mmHg 50%
    13:00 +25°C° 0,7 mm 2 m/s 610 mmHg 50%
    14:00 +25°C° 0,9 mm 3 m/s 610 mmHg 54%
    15:00 +24°C° 0,9 mm 3 m/s 609 mmHg 57%
    16:00 +22°C° 0,9 mm 3 m/s 608 mmHg 61%
    17:00 +20°C° 0,4 mm 3 m/s 608 mmHg 68%
    18:00 +19°C° 0,4 mm 3 m/s 608 mmHg 74%
    19:00 +17°C° 0,4 mm 2 m/s 608 mmHg 80%
    20:00 +17°C° 0 mm 2 m/s 608 mmHg 83%
    21:00 +16°C° 0 mm 2 m/s 608 mmHg 86%
    22:00 +15°C° 0 mm 1 m/s 608 mmHg 89%
    23:00 +15°C° 0 mm 1 m/s 608 mmHg 89%

    Amanhã, 12 Dezembro, Terça-feira

    Tempo Temperatura Precipitação Vento Pressão Humidade
    00:00 +15°C° 0 mm 1 m/s 608 mmHg 90%
    01:00 +14°C° 0 mm 1 m/s 607 mmHg 91%
    02:00 +14°C° 0 mm 1 m/s 607 mmHg 92%
    03:00 +14°C° 0 mm 1 m/s 607 mmHg 92%
    04:00 +14°C° 0 mm 1 m/s 607 mmHg 93%
    05:00 +15°C° 0 mm 1 m/s 607 mmHg 88%
    06:00 +16°C° 0 mm 1 m/s 608 mmHg 84%
    07:00 +18°C° 0 mm 1 m/s 608 mmHg 79%
    08:00 +20°C° 0,1 mm 1 m/s 609 mmHg 69%
    09:00 +22°C° 0,1 mm 1 m/s 610 mmHg 60%
    10:00 +24°C° 0,1 mm 1 m/s 611 mmHg 51%
    11:00 +25°C° 0,3 mm 2 m/s 611 mmHg 49%
    12:00 +26°C° 0,3 mm 3 m/s 610 mmHg 47%
    13:00 +27°C° 0,3 mm 3 m/s 610 mmHg 45%
    14:00 +26°C° 0,8 mm 3 m/s 610 mmHg 49%
    15:00 +23°C° 0,8 mm 4 m/s 609 mmHg 53%
    16:00 +22°C° 0,8 mm 4 m/s 608 mmHg 58%
    17:00 +21°C° 0,3 mm 4 m/s 608 mmHg 65%
    18:00 +19°C° 0,3 mm 3 m/s 608 mmHg 72%
    19:00 +17°C° 0,3 mm 3 m/s 608 mmHg 78%
    20:00 +17°C° 0 mm 2 m/s 608 mmHg 81%
    21:00 +16°C° 0 mm 2 m/s 609 mmHg 84%
    22:00 +15°C° 0 mm 2 m/s 609 mmHg 87%
    23:00 +15°C° 0 mm 1 m/s 609 mmHg 88%

    Depois de amanhã, 13 Dezembro, Quarta-feira

    Tempo Temperatura Precipitação Vento Pressão Humidade
    00:00 +15°C° 0 mm 1 m/s 608 mmHg 89%
    01:00 +14°C° 0 mm 1 m/s 608 mmHg 90%
    02:00 +14°C° 0 mm 1 m/s 608 mmHg 90%
    03:00 +14°C° 0 mm 1 m/s 607 mmHg 90%
    04:00 +14°C° 0 mm 1 m/s 607 mmHg 90%
    05:00 +14°C° 0 mm 1 m/s 608 mmHg 86%
    06:00 +15°C° 0 mm 1 m/s 609 mmHg 82%
    07:00 +16°C° 0 mm 1 m/s 609 mmHg 78%
    08:00 +19°C° 0 mm 1 m/s 610 mmHg 69%
    09:00 +21°C° 0 mm 1 m/s 611 mmHg 60%
    10:00 +23°C° 0 mm 1 m/s 612 mmHg 51%
    11:00 +24°C° 0 mm 2 m/s 612 mmHg 47%
    12:00 +25°C° 0 mm 2 m/s 612 mmHg 43%
    13:00 +27°C° 0 mm 2 m/s 612 mmHg 38%
    14:00 +26°C° 0,2 mm 3 m/s 611 mmHg 42%
    15:00 +25°C° 0,2 mm 3 m/s 610 mmHg 46%
    16:00 +23°C° 0,2 mm 4 m/s 609 mmHg 49%
    17:00 +21°C° 0,1 mm 3 m/s 609 mmHg 57%
    18:00 +19°C° 0,1 mm 3 m/s 609 mmHg 65%
    19:00 +18°C° 0,1 mm 2 m/s 609 mmHg 72%
    20:00 +17°C° 0 mm 2 m/s 609 mmHg 76%
    21:00 +16°C° 0 mm 1 m/s 609 mmHg 80%
    22:00 +15°C° 0 mm 1 m/s 609 mmHg 84%
    23:00 +15°C° 0 mm 1 m/s 609 mmHg 85%

    14 Dezembro, Quinta-feira

    Tempo Temperatura Precipitação Vento Pressão Humidade
    00:00 +15°C° 0 mm 1 m/s 609 mmHg 86%
    01:00 +14°C° 0 mm 1 m/s 608 mmHg 87%
    02:00 +14°C° 0 mm 1 m/s 608 mmHg 86%
    03:00 +14°C° 0 mm 1 m/s 608 mmHg 86%
    04:00 +14°C° 0 mm 1 m/s 607 mmHg 85%
    05:00 +15°C° 0 mm 1 m/s 608 mmHg 78%
    06:00 +16°C° 0 mm 1 m/s 609 mmHg 71%
    07:00 +16°C° 0 mm 0 m/s 610 mmHg 64%
    08:00 +21°C° 0 mm 1 m/s 611 mmHg 54%
    09:00 +23°C° 0 mm 1 m/s 612 mmHg 44%
    10:00 +25°C° 0 mm 1 m/s 613 mmHg 35%
    11:00 +26°C° 0 mm 2 m/s 613 mmHg 32%
    12:00 +27°C° 0 mm 2 m/s 612 mmHg 28%
    13:00 +29°C° 0 mm 2 m/s 612 mmHg 25%
    14:00 +28°C° 0 mm 3 m/s 611 mmHg 28%
    15:00 +27°C° 0 mm 3 m/s 611 mmHg 30%
    16:00 +26°C° 0 mm 3 m/s 610 mmHg 32%
    17:00 +24°C° 0 mm 3 m/s 609 mmHg 39%
    18:00 +21°C° 0 mm 2 m/s 609 mmHg 47%
    19:00 +19°C° 0 mm 2 m/s 608 mmHg 54%
    20:00 +19°C° 0 mm 1 m/s 608 mmHg 59%
    21:00 +18°C° 0 mm 1 m/s 608 mmHg 63%
    22:00 +16°C° 0 mm 1 m/s 608 mmHg 67%
    23:00 +15°C° 0 mm 1 m/s 608 mmHg 69%

    15 Dezembro, Sexta-feira

    Tempo Temperatura Precipitação Vento Pressão Humidade
    00:00 +15°C° 0 mm 1 m/s 608 mmHg 70%
    01:00 +14°C° 0 mm 1 m/s 607 mmHg 71%
    02:00 +14°C° 0 mm 1 m/s 607 mmHg 70%
    03:00 +14°C° 0 mm 1 m/s 607 mmHg 69%
    04:00 +14°C° 0 mm 1 m/s 606 mmHg 68%
    05:00 +14°C° 0 mm 0 m/s 607 mmHg 62%
    06:00 +15°C° 0 mm 0 m/s 608 mmHg 56%
    07:00 +17°C° 0 mm 0 m/s 609 mmHg 50%
    08:00 +22°C° 0 mm 1 m/s 610 mmHg 42%
    09:00 +24°C° 0 mm 1 m/s 611 mmHg 34%
    10:00 +27°C° 0 mm 1 m/s 613 mmHg 25%
    11:00 +28°C° 0 mm 1 m/s 612 mmHg 23%
    12:00 +29°C° 0 mm 2 m/s 612 mmHg 21%
    13:00 +30°C° 0 mm 2 m/s 612 mmHg 19%
    14:00 +30°C° 0 mm 3 m/s 611 mmHg 20%
    15:00 +29°C° 0 mm 3 m/s 610 mmHg 21%
    16:00 +28°C° 0 mm 4 m/s 610 mmHg 22%
    17:00 +26°C° 0 mm 3 m/s 609 mmHg 28%
    18:00 +22°C° 0 mm 3 m/s 609 mmHg 33%
    19:00 +19°C° 0 mm 2 m/s 608 mmHg 38%
    20:00 +18°C° 0 mm 2 m/s 608 mmHg 41%
    21:00 +18°C° 0 mm 1 m/s 608 mmHg 44%
    22:00 +16°C° 0 mm 1 m/s 608 mmHg 47%
    23:00 +16°C° 0 mm 1 m/s 608 mmHg 49%

    16 Dezembro, Sábado

    Tempo Temperatura Precipitação Vento Pressão Humidade
    00:00 +15°C° 0 mm 1 m/s 607 mmHg 50%
    01:00 +15°C° 0 mm 1 m/s 607 mmHg 52%
    02:00 +14°C° 0 mm 1 m/s 607 mmHg 52%
    03:00 +14°C° 0 mm 1 m/s 606 mmHg 51%
    04:00 +14°C° 0 mm 1 m/s 606 mmHg 51%
    05:00 +14°C° 0 mm 0 m/s 607 mmHg 46%
    06:00 +16°C° 0 mm 0 m/s 608 mmHg 41%
    07:00 +17°C° 0 mm 0 m/s 609 mmHg 36%
    08:00 +22°C° 0 mm 1 m/s 610 mmHg 31%
    09:00 +24°C° 0 mm 1 m/s 611 mmHg 26%
    10:00 +27°C° 0 mm 1 m/s 612 mmHg 20%
    11:00 +28°C° 0 mm 2 m/s 612 mmHg 19%
    12:00 +29°C° 0 mm 2 m/s 612 mmHg 18%
    13:00 +30°C° 0 mm 3 m/s 611 mmHg 18%
    14:00 +29°C° 0 mm 3 m/s 611 mmHg 20%
    15:00 +28°C° 0 mm 3 m/s 610 mmHg 22%
    16:00 +26°C° 0 mm 3 m/s 609 mmHg 25%
    17:00 +24°C° 0 mm 3 m/s 609 mmHg 31%
    18:00 +21°C° 0 mm 2 m/s 609 mmHg 37%
    19:00 +18°C° 0 mm 2 m/s 608 mmHg 43%
    20:00 +17°C° 0 mm 2 m/s 608 mmHg 47%
    21:00 +16°C° 0 mm 1 m/s 608 mmHg 51%
    22:00 +15°C° 0 mm 1 m/s 608 mmHg 54%
    23:00 +15°C° 0 mm 1 m/s 608 mmHg 57%
    Mostrar mais